DELTA 1 DEB, 7907

Orbit data source: Space-Track

DELTA 1 DEB, 7907 is space debris in SSO originally from a launch on Sun, 23 Jul 1972 UTC launched from the Air Force Western Test Range (AFWTR). Debris objects in space refer to the collection of defunct objects orbiting the Earth. Examples of debris include non-operational satellites, rocket bodies, and fragments generated from explosions, collisions, or faulty payload assembly.

Loading next visibility...
Identifier
7907, 1972-058BS
Orbit
SSO
Country
Flag of USUS
Related business
Manufacturer
Unknown
Mission
Spacecraft
Bus & Motor
Unknown
Mass
Unknown
Launch date (UTC)
1972-07-23 (53 years ago)
Launch vehicle
Unknown
Launch site
Air Force Western Test Range (AFWTR)
Object type
Payload
Rocket body
Debris
Shape & HBR
Unknown shape, 0.1 m
Radar Cross Section
Medium (>0.1 m² and <1 m²)

Expand to show TLE details & history
Last TLE update: 15 hours ago

TLE from 15 hours ago
0 DELTA 1 DEB
1 07907U 72058BS  25293.89970800  .00001917  00000-0  82403-3 0  9995
2 07907  97.6745 112.3082 0269516 205.0059 153.7858 14.07971826545859
Epoch: 2025-10-20T21:35Z
TLE epoch observation values (Epoch: 2025-10-20T21:35:34.771Z)
Latitude
0.00001°
Longitude
118.81792°
Altitude
1,045.444 km
Speed
7.24 km/s
True Right ascension
07h 29m 13s
True Declination
0° 00' 00"
Sunlit
Object was in daylight at epoch
Visualization orbit readout
Latitude
Unknown
Longitude
Unknown
Altitude
Unknown
Speed
Unknown
Apparent Right ascension
Unknown
Apparent Declination
Unknown
Sunlit
N/A
Visualization observer readout
Local Sidereal Time
07:57:26
Azimuth
Unknown
Elevation
Unknown
Doppler factor
Unknown
Orbital elements
Apogee altitude
1,058.618 km
Perigee altitude
668.273 km
Semi-major axis
7,241.583 km
Eccentricity
0.02695
Inclination
97.6745°
RAAN
112.3082°
Arg. of periapsis
205.0059°
True anomaly
155.10986°
Mean anomaly
153.7858°
Eccentric anomaly
154.45177°
Mean motion
3.52203 °/min
Orbital period
102.21 mins
BSTAR
0.00082403
Loading maneuver chart data...
Computing Atmospheric mass density...

Documentation

Showing up to 5 results
|